Regional Weather Roundup
Issued by NWS Huntsville, AL

Home | Current Version | Previous Version | Text Only | Print | Product List | Glossary On
Versions: 1 2 3 4 5 6 7 8 9 10 11 12 13 14 15 16 17 18 19 20 21 22 23 24 25 26 27 28 29 30 31 32 33 34 35 36 37 38 39 40 41 42 43 44 45 46 47 48 49 50
000
ASUS44 KHUN 310310
RWRHUN

WEATHER ROUNDUP FOR THE TENNESSEE VALLEY
NATIONAL WEATHER SERVICE HUNTSVILLE AL
1000 PM CDT WED JUL 30 2014

ALZ001>004-310400-
NORTHWEST ALABAMA

CITY           SKY/WX    TMP DP  RH WIND       PRES   REMARKS
COURTLAND HCN    N/A     70 N/A N/A CALM        N/A
RUSSELLVILLE     N/A     66 N/A N/A MISG        N/A
SHOALS AIRPORT CLOUDY    71  62  73 CALM      30.08S
SHOALS TVA RES   N/A     70 N/A N/A MISG        N/A
$$

ALZ005>007-016-310400-
NORTH CENTRAL ALABAMA

CITY           SKY/WX    TMP DP  RH WIND       PRES   REMARKS
CULLMAN AG STN   N/A     68 N/A N/A CALM        N/A
DECATUR AP     CLOUDY    69  63  81 N3        30.08R
HUNTSVILLE AP  CLOUDY    73  60  63 NE3       30.07R
HUN NWS/UAH      N/A     74  56  53 NE3         N/A
MERIDIANVILLE  CLOUDY    64  59  82 CALM      30.08S
VINEMONT AP    FAIR      65  62  87 CALM      30.10S
$$

ALZ008>010-310400-
NORTHEAST ALABAMA

CITY           SKY/WX    TMP DP  RH WIND       PRES   REMARKS
ALBERTVILLE    CLOUDY    68  63  83 NE3       30.07S
FORT PAYNE     CLOUDY    63  57  82 CALM      30.08R
SCOTTSBORO AP    N/A     68  64  88 CALM      30.08S
SCOTTSBORO HCN   N/A     66 N/A N/A MISG        N/A
VALLEY HEAD      N/A     64 N/A N/A MISG        N/A
$$

TNZ076-096-097-310400-
SOUTHEASTERN MIDDLE TENNESSEE

CITY           SKY/WX    TMP DP  RH WIND       PRES   REMARKS
FAYETTEVILLE   CLEAR     66  59  77 N9        30.09S
TULLAHOMA      CLEAR     64  59  82 CALM      30.11S
WINCHESTER     CLEAR     64  61  88 CALM      30.10S
$$

...SURROUNDING SITES...

CITY           SKY/WX    TMP DP  RH WIND       PRES   REMARKS
ATLANTA        MOCLDY    77  56  48 E7        30.05R
ANNISTON       MOCLDY    74  58  57 N6        30.05S
BIRMINGHAM     MOCLDY    71  54  54 CALM      30.07S
CHATTANOOGA    MOCLDY    70  59  68 CALM      30.09R
CORINTH        FAIR      72  66  83 CALM      30.07S
DALTON         CLOUDY    68  59  73 CALM      30.07S
GADSDEN        CLOUDY    70  59  68 CALM      30.05S
GOLDEN TRNGL   CLOUDY    72  61  68 N3        30.07R
HALEYVILLE     FAIR      67  63  87 CALM      30.11S
JACKSON TN     CLOUDY    70  65  84 CALM      30.07S
LEWISBURG      FAIR      66  61  84 CALM      30.09R
MEMPHIS        CLOUDY    77  61  57 N5        30.07R
MURFREESBORO   FAIR      70  62  75 CALM      30.08R
NASHVILLE      CLOUDY    69  57  65 CALM      30.09R
ROME           CLOUDY    71  58  63 N5        30.06R
SAVANNAH       CLOUDY    67  67 100 CALM      30.09R
TUPELO         CLOUDY    74  64  71 CALM      30.06S
TUSCALOOSA     PTCLDY    70  61  73 CALM      30.04R
$$

...GULF COAST WEATHER...

CITY           SKY/WX    TMP DP  RH WIND       PRES   REMARKS
GULFPORT       CLEAR     79  59  50 NE5       30.02R
PASCAGOULA     CLEAR     68  64  87 CALM      30.03R
MOBILE         MOCLDY    71  62  73 CALM      30.04R
GULF SHORES    CLEAR     71  61  71 CALM      30.02R
PENSACOLA      PTCLDY    70  61  73 N3        30.01R
DESTIN         CLEAR     79  60  52 NE3       30.01R
PANAMA CITY    CLEAR     74  67  76 N3        30.01R
APPALACHICOLA  CLEAR     72  66  81 CALM      30.00R
$$




USA.gov is the U.S. government's official web portal to all federal, state and local government web resources and services.